Flag Weather past 2 weeks in Lubango, Angola

Now
77 °F

Sunny.


Feels Like: 79 °F
Forecast: 59 / 69 °F
Wind: 7 mph from West

Location: Ondangwa

Current Time: Oct 31, 2014 at 7:39:31 AM

Latest Report: Oct 31, 2014 at 7:00 AM


Visibility: 10 mi

Pressure: 30.01 "Hg

Humidity: 61%

Dew point: 63 °F

Location of LubangoLocation

Historic Weather in Lubango — Graph

°F

Lubango temperature yesterday

Maximum temperature yesterday: 99 °F (at 3:00 PM)
Minimum temperature yesterday: 70 °F (at 5:00 AM)
Average temperature yesterday: 85 °F

Past Weeks' High & Low Weather Summary

 TemperatureHumidityPressure
High102 °F (Oct 22, 3:00 PM)69% (Oct 29, 12:00 AM)30.07 "Hg (Oct 29, 12:00 AM)
Low59 °F (Oct 17, 4:00 AM)3% (Oct 16, 12:00 PM)29.80 "Hg (Oct 30, 5:00 PM)
Average83 °F20%29.95 "Hg
* Reported Oct 16 6:00 AM — Oct 31 6:00 AM, Lubango, Weather by CustomWeather, © 2014

Note: Actual official high and low records may vary slightly from our data, if they occured in-between our weather recording intervals... More about our weather records

Advertising

Lubango weather history for previous 24 hours

 ConditionsComfort  
Time TempWeatherWind HumidityBarometerVisibility
6:00 AM
Oct 31
72 °FPassing clouds.3 mph69%30.01 "HgN/A
4:00 AM73 °FMild.7 mph65%29.95 "HgN/A
3:00 AM73 °FMild.8 mph61%29.95 "HgN/A
2:00 AM73 °FMild.13 mph61%29.95 "HgN/A
1:00 AM73 °FMild.9 mph65%29.98 "HgN/A
12:00 AM75 °FMild.12 mph61%29.98 "HgN/A
11:00 PM
Oct 30
81 °FPleasantly warm.6 mph39%29.95 "HgN/A
10:00 PM81 °FWarm.12 mph42%29.92 "HgN/A
9:00 PM82 °FWarm.3 mph42%29.89 "HgN/A
8:00 PM81 °FWarm.5 mph45%29.89 "HgN/A
7:00 PM75 °FMild.17 mph54%29.89 "HgN/A
6:00 PM82 °FPleasantly warm.16 mph35%29.83 "HgN/A
5:00 PM91 °FHot.15 mph24%29.80 "HgN/A
3:00 PM99 °FExtremely hot.6 mph15%29.83 "HgN/A
2:00 PM97 °FExtremely hot.7 mph18%29.86 "HgN/A
1:00 PM97 °FScattered clouds.3 mph18%29.89 "HgN/A
12:00 PM97 °FPassing clouds.5 mph19%29.92 "HgN/A
11:00 AM93 °FPassing clouds.6 mph21%29.98 "HgN/A
10:00 AM91 °FSunny.2 mph24%29.98 "Hg10 mi
9:00 AM88 °FSunny.5 mph24%30.01 "Hg10 mi
8:00 AM81 °FPleasantly warm.6 mph23%30.01 "HgN/A
7:00 AM75 °FSunny.7 mph25%30.01 "Hg10 mi
Weather by CustomWeather, © 2014

See weather overviewHow to use our weather pages